Tracking 33744 objects as of 12-Apr-2026
HD Live streaming from Space Station
objects crossing your sky now

SATELIOT_1

Track SATELIOT_1 now!
10-day predictions


NORAD ID: 60550
Int'l Code: 2024-149CL
Perigee: 577.6 km
Apogee: 584.2 km
Inclination: 97.7 °
Period: 96.1 minutes
Semi major axis: 6951 km
RCS: Unknown
Launch date: August 16, 2024
Source: Spain (SPN)
Launch site: AIR FORCE WESTERN TEST RANGE (AFWTR)
Your satellite tracking list
Your tracking list is empty




NASA's NSSDC Master Catalog

Two Line Element Set (TLE):
1 60550U 24149CL  26101.76029433  .00002364  00000-0  20621-3 0  9999
2 60550  97.6772 178.7715 0004766 304.7093  55.3680 14.97789037 90125
Source of the keplerian elements: AFSPC